GW6259 Weather Reports


time (UTC)temp
F
wind
direction
speed
knots
gust
knots
rain 1hr
in
rain 24hr
in
rain mn
in
humidity
%
barometer
mb
20260508094503 65 326 3.5 11.3 0.00 0.01 0.01 66 1016.4
20260508093006 65 319 1.7 10.4 0.00 0.01 0.01 69 1016.4
20260508091513 65 229 2.6 7.0 0.00 0.01 0.01 69 1016.4
20260508090017 65 35 2.6 7.8 0.00 0.01 0.01 69 1016.0
20260508084520 64 276 4.3 8.7 0.00 0.01 0.01 70 1016.0
20260508083004 63 188 5.2 8.7 0.00 0.01 0.01 72 1016.0
20260508081507 62 207 4.3 8.7 0.00 0.01 0.01 77 1016.1
20260508080028 62 274 4.3 9.6 0.00 0.01 0.01 76 1015.9
20260508074518 62 233 5.2 8.7 0.00 0.01 0.01 77 1015.8
20260508073022 61 233 3.5 8.7 0.00 0.01 0.01 79 1015.8
20260508071511 60 210 2.6 7.0 0.00 0.01 0.01 78 1015.8
20260508070020 59 181 2.6 6.1 0.00 0.01 0.01 80 1015.6
20260508064534 59 195 2.6 7.0 0.00 0.01 0.01 80 1015.7
20260508063019 60 184 3.5 6.1 0.00 0.01 0.01 81 1015.6
20260508061523 59 166 2.6 5.2 0.00 0.01 0.01 81 1015.4
20260508060009 59 188 2.6 4.3 0.00 0.01 0.01 82 1015.2
20260508054528 58 148 1.7 2.6 0.00 0.01 0.01 81 1015.1
20260508053019 57 139 1.7 2.6 0.00 0.01 0.01 82 1015.0
20260508051520 56 219 0.9 2.6 0.00 0.01 0.01 84 1014.8
20260508050024 55 287 0.0 1.7 0.00 0.01 0.01 87 1014.8
20260508044510 54 296 1.7 2.6 0.00 0.01 0.01 87 1014.6
20260508043014 53 288 1.7 3.5 0.00 0.01 0.01 88 1014.2
20260508041520 53 272 1.7 2.6 0.00 0.01 0.01 88 1014.3
20260508040038 53 276 1.7 2.6 0.00 0.01 0.01 87 1014.1
20260508034536 53 261 1.7 3.5 0.00 0.01 0.01 87 1014.0
20260508033017 53 264 1.7 2.6 0.00 0.01 0.01 86 1013.8
20260508031519 53 245 1.7 2.6 0.00 0.01 0.01 86 1013.7
20260508030022 53 271 1.7 2.6 0.00 0.01 0.01 87 1013.5
20260508024527 53 244 2.6 3.5 0.00 0.01 0.01 86 1013.6
20260508023027 53 293 0.9 0.9 0.00 0.01 0.01 86 1013.4
20260508021515 53 293 0.0 0.0 0.00 0.01 0.01 86 1013.4
20260508020022 53 293 0.9 0.9 0.00 0.01 0.01 86 1013.5
20260508014504 53 293 0.9 1.7 0.00 0.01 0.01 88 1013.6
20260508013008 53 308 1.7 2.6 0.00 0.01 0.01 90 1013.6
20260508011503 52 329 0.0 0.9 0.00 0.01 0.01 92 1013.3
20260508010004 52 25 0.0 1.7 0.00 0.01 0.01 92 1013.4
20260508004503 51 221 0.0 1.7 0.00 0.01 0.01 92 1013.5
20260508003004 52 343 1.7 2.6 0.00 0.01 0.01 93 1013.8
20260508001507 52 350 2.6 3.5 0.01 0.01 0.01 93 1013.8
20260508000002 52 110 0.0 0.0 0.01 0.01 0.01 93 1014.2
20260507234503 52 124 0.0 2.6 0.01 0.01 0.01 93 1014.7
20260507233004 53 145 0.0 0.9 0.01 0.01 0.01 93 1014.9
20260507231506 53 160 0.9 3.5 0.00 0.00 0.00 93 1015.2
20260507230014 53 263 3.5 5.2 0.00 0.00 0.00 93 1015.4
20260507224516 53 282 2.6 7.0 0.00 0.00 0.00 92 1015.4
20260507223007 53 265 6.1 7.8 0.00 0.00 0.00 91 1015.8
20260507221504 54 304 4.3 6.1 0.00 0.00 0.00 85 1015.2
20260507220006 54 302 0.9 0.9 0.00 0.00 0.00 85 1014.8
20260507214509 54 131 0.0 2.6 0.00 0.00 0.00 85 1014.4
20260507213023 53 339 0.9 4.3 0.00 0.00 0.00 90 1014.1
20260507211504 53 154 0.0 0.0 0.00 0.00 0.00 91 1014.3
20260507210005 53 154 0.9 0.9 0.00 0.00 0.00 91 1014.5
20260507204508 53 223 0.9 2.6 0.00 0.00 0.00 91 1014.7
20260507203012 53 275 0.0 0.9 0.00 0.00 0.00 90 1014.6
20260507201517 53 257 1.7 2.6 0.00 0.00 0.00 90 1014.7
20260507200004 53 262 0.0 1.7 0.00 0.00 0.00 89 1014.5
20260507194520 53 138 0.0 0.0 0.00 0.00 0.00 89 1014.3
20260507193014 53 138 0.0 0.0 0.00 0.00 0.00 88 1014.1
20260507191516 53 103 0.0 0.0 0.00 0.00 0.00 88 1013.9
20260507190027 53 100 0.0 2.6 0.00 0.00 0.00 88 1013.9
20260507184504 53 135 0.9 2.6 0.00 0.00 0.00 87 1014.0
20260507183008 53 99 1.7 7.0 0.00 0.00 0.00 87 1013.8
20260507181508 53 180 2.6 4.3 0.00 0.00 0.00 87 1014.1
20260507180018 54 134 1.7 5.2 0.00 0.00 0.00 87 1013.7
20260507174519 54 152 2.6 6.1 0.00 0.00 0.00 86 1013.2
20260507173011 55 124 4.3 6.1 0.00 0.00 0.00 85 1013.5
20260507171509 55 166 2.6 6.1 0.00 0.00 0.00 84 1013.7
20260507170019 56 160 2.6 7.8 0.00 0.00 0.00 83 1013.6
20260507164522 56 92 3.5 7.0 0.00 0.00 0.00 82 1013.7
20260507163021 56 105 6.1 11.3 0.00 0.00 0.00 80 1013.5
20260507161505 57 116 6.1 13.9 0.00 0.00 0.00 79 1013.5
20260507160010 58 108 6.1 9.6 0.00 0.00 0.00 78 1013.9
20260507154514 58 137 7.0 11.3 0.00 0.00 0.00 77 1013.9
20260507151524 58 96 4.3 14.8 0.00 0.00 0.00 76 1014.0
20260507150008 59 74 6.1 11.3 0.00 0.00 0.00 76 1013.1
20260507144511 58 168 6.1 12.2 0.00 0.00 0.00 77 1013.4
20260507141521 59 60 7.0 13.9 0.00 0.00 0.00 73 1013.5
20260507140023 60 124 7.8 18.2 0.00 0.00 0.00 74 1013.5
20260507134507 61 139 7.8 14.8 0.00 0.00 0.00 72 1013.9
20260507130021 60 139 8.7 14.8 0.00 0.00 0.00 71 1013.7
20260507124534 62 89 8.7 14.8 0.00 0.00 0.00 68 1014.3
20260507121516 61 109 9.6 15.6 0.00 0.00 0.00 66 1014.1
20260507120007 61 98 8.7 14.8 0.00 0.00 0.00 65 1013.7
20260507113027 60 87 10.4 19.1 0.00 0.00 0.00 61 1013.9
20260507111512 62 68 11.3 22.6 0.00 0.00 0.00 58 1014.2
20260507110018 62 88 12.2 19.1 0.00 0.00 0.00 57 1014.5
20260507104504 63 58 8.7 15.6 0.00 0.00 0.00 55 1014.4
20260507103004 62 85 13.0 19.1 0.00 0.00 0.00 54 1014.5
20260507101516 61 101 15.6 24.3 0.00 0.00 0.00 53 1014.3
20260507100016 62 96 13.9 21.7 0.00 0.00 0.00 50 1014.6